This demonstration page uses our WeatherBlox Daily Observations layout. Learn more.

Left ArrowRight Arrow

39.51506, -84.39828

Hourly Observations for May 25, 2021

Temp ( °F °C ) Dew Point ( °F °C ) Humidity (%) Winds ( mph kmh ) Pressure ( in mb ) Visibility ( mi km ) Precip ( " mm )
12:15 am 00:15 Clear 66 19 65 18.3 96 96 Calm 30.14 1021 10 16 0.00 0.00
12:35 am 00:35 Clear 67 19.4 65 18.3 93 93 Calm 30.14 1021 10 16 0.00 0.00
12:55 am 00:55 Clear 65 18.5 65 18.2 98 98 Calm 30.14 1021 10 16 0.00 0.00
1:15 am 01:15 Clear 65 18.5 65 18.1 98 98 Calm 30.14 1021 10 16 0.00 0.00
1:35 am 01:35 Clear 64 18 64 18 100 100 Calm 30.14 1021 10 16 0.00 0.00
1:55 am 01:55 Clear 64 18 64 18 100 100 Calm 30.14 1021 10 16 0.00 0.00
2:15 am 02:15 Clear 64 18 N/A N/A Calm 30.14 1021 7 11 0.00 0.00
2:35 am 02:35 Clear 64 18 N/A N/A Calm 30.13 1020 10 16 0.00 0.00
2:55 am 02:55 Clear 63 17 N/A N/A Calm 30.13 1020 7 11 0.00 0.00
3:15 am 03:15 Clear 63 17 N/A N/A Calm 30.13 1020 7 11 0.00 0.00
3:35 am 03:35 Hazy 63 17 N/A N/A Calm 30.13 1020 5 8 0.00 0.00
3:55 am 03:55 Hazy 63 17 N/A N/A Calm 30.13 1020 4 6 0.00 0.00
4:15 am 04:15 Hazy 61 16 N/A N/A Calm 30.13 1020 5 8 0.00 0.00
4:35 am 04:35 Clear with Mist and Fog 63 17 N/A N/A Calm 30.13 1020 3 5 0.00 0.00
4:55 am 04:55 Mostly Cloudy with Fog 61 16 N/A N/A Calm 30.13 1020 0 0 0.00 0.00
5:15 am 05:15 Mostly Cloudy with Mist and Fog 61 16 N/A N/A Calm 30.13 1020 2 3 0.00 0.00
5:35 am 05:35 Mostly Cloudy with Fog 61 16 N/A N/A Calm 30.13 1020 0 0 0.00 0.00
5:55 am 05:55 Mostly Cloudy with Fog 61 16 N/A N/A Calm 30.13 1020 1 1 0.00 0.00
6:15 am 06:15 Mostly Cloudy with Fog 59 15 N/A N/A Calm 30.15 1021 N/A 0.00 0.00
6:35 am 06:35 Mostly Cloudy with Fog 61 16 N/A N/A Calm 30.14 1021 N/A 0.00 0.00
6:55 am 06:55 Mostly Cloudy with Fog 61 16 N/A N/A Calm 30.15 1021 1 1 0.00 0.00
7:15 am 07:15 Sunny with Mist and Fog 61 16 N/A N/A Calm 30.15 1021 2 3 0.00 0.00
7:35 am 07:35 Mostly Cloudy with Mist and Fog 63 17 N/A N/A Calm 30.16 1021 3 5 0.00 0.00
7:55 am 07:55 Mostly Cloudy with Mist and Fog 64 18 N/A N/A Calm 30.16 1021 4 6 0.00 0.00
8:15 am 08:15 Hazy 66 19 N/A N/A NW 3 6 30.16 1021 5 8 0.00 0.00
8:35 am 08:35 Sunny with Mist and Fog 69 20.8 66 19 90 90 WSW 5 7 30.15 1021 7 11 0.00 0.00
8:55 am 08:55 Sunny 72 22 64 18 78 78 WSW 6 9 30.15 1021 10 16 0.00 0.00
9:15 am 09:15 Sunny 73 22.5 64 17.8 75 75 WSW 6 9 30.16 1021 10 16 0.00 0.00
9:35 am 09:35 Sunny 75 23.8 65 18.4 72 72 SW 7 11 30.16 1021 10 16 0.00 0.00
9:55 am 09:55 Sunny 76 24.4 65 18.2 68 68 SW 8 13 30.15 1021 10 16 0.00 0.00
10:15 am 10:15 Sunny 76 24.7 65 18.3 68 68 WSW 8 13 30.15 1021 10 16 0.00 0.00
10:35 am 10:35 Sunny 78 25.7 65 18.5 65 65 SSW 5 7 30.14 1021 10 16 0.00 0.00
10:55 am 10:55 Sunny 80 26.5 66 18.8 63 63 SW 8 13 30.14 1021 10 16 0.00 0.00
11:15 am 11:15 Sunny 81 27.3 65 18.6 59 59 SSW 7 11 30.13 1020 10 16 0.00 0.00
11:35 am 11:35 Sunny 83 28.1 66 18.7 57 57 SW 9 15 30.13 1020 10 16 0.00 0.00
11:55 am 11:55 Sunny 83 28.5 64 18 53 53 WSW 15 24 30.13 1020 10 16 0.00 0.00
12:15 pm 12:15 Sunny 84 28.9 64 17.6 50 50 WSW 13 20 30.12 1020 10 16 0.00 0.00
12:35 pm 12:35 Sunny 84 29 63 17.3 49 49 SW 14 22 30.11 1020 10 16 0.00 0.00
12:55 pm 12:55 Sunny 85 29.7 65 18.4 51 51 WSW 14 22 30.11 1020 10 16 0.00 0.00
1:15 pm 13:15 Sunny 84 29.1 61 16.2 46 46 SW 17 28 30.10 1019 10 16 0.00 0.00
1:35 pm 13:35 Sunny 86 30 62 16.9 45 45 WSW 17 28 30.10 1019 10 16 0.00 0.00
1:55 pm 13:55 Partly Cloudy 86 29.8 63 17.2 47 47 SW 15 24 30.09 1019 10 16 0.00 0.00
2:15 pm 14:15 Sunny 86 30 63 17.4 47 47 WSW 12 19 30.09 1019 10 16 0.00 0.00
2:35 pm 14:35 Mostly Cloudy 86 30.1 63 17 45 45 WSW 14 22 30.08 1019 10 16 0.00 0.00
2:55 pm 14:55 Partly Cloudy 87 30.3 62 16.8 44 44 WSW 12 19 30.07 1018 10 16 0.00 0.00
3:15 pm 15:15 Sunny 87 30.6 62 16.8 43 43 WSW 13 20 30.07 1018 10 16 0.00 0.00
3:35 pm 15:35 Sunny 87 30.3 61 16.3 43 43 W 16 26 30.07 1018 10 16 0.00 0.00
3:55 pm 15:55 Sunny 86 29.9 61 16.3 44 44 WSW 14 22 30.06 1018 10 16 0.00 0.00
4:15 pm 16:15 Partly Cloudy 85 29.7 61 16.3 44 44 WSW 17 28 30.05 1018 10 16 0.00 0.00
4:35 pm 16:35 Sunny 85 29.5 61 16.3 45 45 WSW 12 19 30.05 1018 10 16 0.00 0.00
4:55 pm 16:55 Partly Cloudy 86 29.9 62 16.6 45 45 WSW 15 24 30.04 1017 10 16 0.00 0.00
5:15 pm 17:15 Sunny 87 30.5 62 16.4 43 43 WSW 17 28 30.04 1017 10 16 0.00 0.00
5:35 pm 17:35 Sunny 86 29.8 61 15.9 43 43 SW 15 24 30.03 1017 10 16 0.00 0.00
5:55 pm 17:55 Sunny 84 28.9 60 15.8 45 45 SW 16 26 30.03 1017 10 16 0.00 0.00
6:15 pm 18:15 Partly Cloudy 85 29.5 61 15.9 44 44 SW 14 22 30.02 1017 10 16 0.00 0.00
6:35 pm 18:35 Sunny 85 29.7 61 16.3 44 44 WSW 14 22 30.02 1017 10 16 0.00 0.00
6:55 pm 18:55 Mostly Cloudy with Haze 85 29.5 62 16.4 45 45 SW 13 20 30.01 1016 1 2 0.00 0.00
7:15 pm 19:15 Sunny 84 29.1 60 15.8 45 45 WSW 13 20 30.01 1016 10 16 0.00 0.00
7:35 pm 19:35 Sunny 83 28.5 62 16.4 48 48 WSW 10 17 30.02 1016 10 16 0.00 0.00
7:55 pm 19:55 Sunny 82 27.8 62 16.6 51 51 WSW 9 15 30.02 1016 10 16 0.00 0.00
8:15 pm 20:15 Sunny 82 27.8 61 16.1 49 49 SW 9 15 30.02 1016 10 16 0.00 0.00
8:35 pm 20:35 Sunny 80 26.4 62 16.5 55 55 SW 7 11 30.02 1017 10 16 0.00 0.00
8:55 pm 20:55 Clear 77 25.2 62 16.9 60 60 WSW 8 13 30.03 1017 10 16 0.00 0.00
9:15 pm 21:15 Clear 79 25.9 62 16.4 56 56 SW 8 13 30.03 1017 10 16 0.00 0.00
9:35 pm 21:35 Clear 75 24.1 62 16.9 64 64 WSW 6 9 30.04 1017 10 16 0.00 0.00
9:55 pm 21:55 Clear 73 22.9 62 16.9 69 69 W 5 7 30.04 1017 10 16 0.00 0.00
10:15 pm 22:15 Clear 70 20.9 65 18.6 87 87 W 5 7 30.05 1018 10 16 0.00 0.00
10:35 pm 22:35 Clear 70 20.9 66 18.8 88 88 WSW 6 9 30.05 1018 10 16 0.00 0.00
10:55 pm 22:55 Clear 69 20.7 66 18.8 89 89 WSW 5 7 30.05 1018 10 16 0.00 0.00
11:15 pm 23:15 Clear 68 20.2 65 18.1 88 88 W 3 6 30.05 1018 10 16 0.00 0.00
11:35 pm 23:35 Clear 68 20.1 65 18.6 91 91 W 5 7 30.05 1018 10 16 0.00 0.00
11:55 pm 23:55 Clear 70 20.9 64 18 84 84 W 3 6 30.04 1017 10 16 0.00 0.00

Powered by AerisWeather